Volver al catálogo

COSMOS 663 DEB

ActivoPO
NORAD 53881·DEBRIS·🇷🇺 Russia

Lanzado Jun 27, 1974 desde Plesetsk Cosmodrome

Loading…

Próximos Pases (próximas 24 horas)

TLE

ActualizadoSource: Space-Track

Época: Sep 12, 2026, 08:07 UTC

1 53881U 74048D   26255.33872095  .00000298  00000-0  28473-3 0  9991
2 53881  82.9469 108.6112 0025752   2.4669 357.6611 13.77373016203756

Sigue COSMOS 663 DEB en tiempo real con AllMySat

Download on the App Store